Location: Holyhead Bay
(53.3667°N, 4.6667°W)
Time: 18:50:04
(UTC+00:00)

Cosmos 540 Rocket - Pass Details

Date: 24 November 2020
Orbit: 740 x 753 km, 74.1° (Epoch: 16 January)

Event Time Altitude Azimuth Distance (km) Brightness Sun altitude
Rises 17:20:53 0° 208° (SSW) 3,178 7.5 -10.1°
Reaches altitude 10° 17:23:14 10° 209° (SSW) 2,256 6.7 -10.5°
Maximum altitude 17:28:21 80° 297° (WNW) 762 3.6 -11.2°
Drops below altitude 10° 17:33:30 10° 25° (NNE) 2,265 5.5 -11.9°
Enters shadow 17:34:24 - 25° (NNE) 2,619 5.9 -12.0°
